Weather History for Harvey, ND

Change the Weather History Date:

Wednesday, March 5, 2014

  Actual Average (KRUG) Record (KRUG)
Temperature  
Mean Temperature 14 °F -  
Max Temperature 24 °F 30 °F 59 °F (1988)
Min Temperature 5 °F 7 °F -21 °F (1976)
Degree Days  
Heating Degree Days 50    
Moisture  
Dew Point 11 °F    
Average Humidity 85    
Maximum Humidity 93    
Minimum Humidity 79    
Precipitation  
Precipitation 0.00 in - - ()
Sea Level Pressure  
Sea Level Pressure 30.06 in    
Wind  
Wind Speed 13 mph (South)    
Max Wind Speed 29 mph    
Max Gust Speed 40 mph    
Visibility 8 miles    
Events Fog , Snow    
Averages and records for this station are not official NWS values.
T = Trace of Precipitation, MM = Missing Value Source: NWS Daily Summary

Daily Weather History Graph

Daily Weather History Graph

Search for Another Location

Airport:

Trip Planner

Search our weather history database for the weather conditions in past years. The results will help you decide how hot, cold, wet, or windy it might be!

Date:

Astronomy

Mar. 05, 2014 Rise Set
Actual Time 7:12 AM CST 6:30 PM CST
Civil Twilight 6:41 AM CST 7:01 PM CST
Nautical Twilight 6:06 AM CST 7:37 PM CST
Astronomical Twilight 5:30 AM CST 8:13 PM CST
Moon 9:17 AM CST (3/5) No Moon Set
Length of Visible Light 12h 19m
Length of Day
11h 17m
Waxing Crescent, 23% of the Moon is Illuminated
Mar 5
Waxing Crescent
Mar 8
First Quarter
Mar 16
Full
Mar 23
Last Quarter
Mar 30
New

Hourly Weather History & Observations

Time (CST) Temp. Windchill Dew Point Humidity Pressure Visibility Wind Dir Wind Speed Gust Speed Precip Events Conditions
12:15 AM 5.0 °F -9.1 °F 1.4 °F 85% 30.23 in 10.0 mi SE 9.2 mph - N/A   Overcast
12:35 AM 6.8 °F -7.8 °F 1.4 °F 79% 30.23 in 10.0 mi SE 10.4 mph - N/A   Overcast
12:55 AM 6.8 °F -5.9 °F 1.4 °F 79% 30.23 in 10.0 mi SE 8.1 mph - N/A   Overcast
1:15 AM 6.8 °F -6.9 °F 1.4 °F 79% 30.23 in 10.0 mi SE 9.2 mph - N/A   Overcast
1:35 AM 6.8 °F -7.8 °F 1.4 °F 79% 30.23 in 10.0 mi SE 10.4 mph - N/A   Overcast
1:55 AM 6.8 °F -6.9 °F 1.4 °F 79% 30.24 in 10.0 mi SSE 9.2 mph - N/A   Overcast
2:15 AM 6.8 °F -7.8 °F 1.4 °F 79% 30.24 in 10.0 mi SSE 10.4 mph - N/A   Overcast
2:35 AM 6.8 °F -7.8 °F 1.4 °F 79% 30.24 in 10.0 mi SE 10.4 mph - N/A   Overcast
2:55 AM 6.8 °F -5.9 °F 1.4 °F 79% 30.24 in 10.0 mi SE 8.1 mph - N/A   Overcast
3:15 AM 6.8 °F -5.9 °F 1.4 °F 79% 30.23 in 10.0 mi SE 8.1 mph - N/A   Overcast
3:35 AM 6.8 °F -5.9 °F 3.2 °F 85% 30.23 in 10.0 mi SSE 8.1 mph - N/A   Overcast
3:55 AM 6.8 °F -6.9 °F 3.2 °F 85% 30.23 in 10.0 mi SSE 9.2 mph - N/A   Overcast
4:15 AM 6.8 °F -5.9 °F 3.2 °F 85% 30.23 in 10.0 mi SSE 8.1 mph - N/A   Overcast
4:35 AM 6.8 °F -6.9 °F 5.0 °F 92% 30.22 in 10.0 mi SSE 9.2 mph - N/A   Overcast
4:55 AM 8.6 °F -4.7 °F 5.0 °F 85% 30.23 in 10.0 mi SSE 9.2 mph - N/A   Mostly Cloudy
5:15 AM 8.6 °F -5.5 °F 5.0 °F 85% 30.22 in 10.0 mi SSE 10.4 mph - N/A   Overcast
5:35 AM 8.6 °F -5.5 °F 5.0 °F 85% 30.21 in 10.0 mi SSE 10.4 mph - N/A   Overcast
5:55 AM 8.6 °F -5.5 °F 5.0 °F 85% 30.21 in 10.0 mi SSE 10.4 mph - N/A   Overcast
6:15 AM 8.6 °F -6.3 °F 5.0 °F 85% 30.20 in 10.0 mi South 11.5 mph 17.3 mph N/A   Overcast
6:35 AM 8.6 °F -7.0 °F 5.0 °F 85% 30.20 in 10.0 mi SSE 12.7 mph - N/A   Overcast
6:55 AM 8.6 °F -5.5 °F 5.0 °F 85% 30.20 in 10.0 mi SSE 10.4 mph - N/A   Overcast
7:15 AM 8.6 °F -6.3 °F 5.0 °F 85% 30.19 in 10.0 mi SSE 11.5 mph 16.1 mph N/A   Overcast
7:35 AM 8.6 °F -8.3 °F 5.0 °F 85% 30.18 in 10.0 mi SSE 15.0 mph - N/A   Overcast
7:55 AM 8.6 °F -7.7 °F 5.0 °F 85% 30.18 in 10.0 mi SSE 13.8 mph - N/A   Overcast
8:15 AM 8.6 °F -6.3 °F 6.8 °F 92% 30.18 in 10.0 mi SSE 11.5 mph - N/A   Overcast
8:35 AM 10.4 °F -6.0 °F 6.8 °F 85% 30.18 in 10.0 mi South 15.0 mph 18.4 mph N/A   Overcast
8:55 AM 10.4 °F -5.4 °F 6.8 °F 85% 30.17 in 9.0 mi South 13.8 mph - N/A   Overcast
9:15 AM 10.4 °F -6.6 °F 6.8 °F 85% 30.17 in 6.0 mi South 16.1 mph 19.6 mph N/A Snow Light Snow
9:35 AM 10.4 °F -6.6 °F 6.8 °F 85% 30.15 in 5.0 mi South 16.1 mph 21.9 mph N/A Snow Light Snow
9:55 AM 12.2 °F -3.7 °F 8.6 °F 85% 30.14 in 10.0 mi South 15.0 mph 20.7 mph N/A   Overcast
10:15 AM 14.0 °F -3.0 °F 8.6 °F 79% 30.14 in 10.0 mi South 18.4 mph 23.0 mph N/A   Overcast
10:35 AM 14.0 °F -2.0 °F 8.6 °F 79% 30.13 in 10.0 mi South 16.1 mph 23.0 mph N/A   Overcast
10:55 AM 14.0 °F -4.3 °F 10.4 °F 86% 30.11 in 8.0 mi South 21.9 mph 26.5 mph N/A   Overcast
11:15 AM 15.8 °F -0.6 °F 12.2 °F 86% 30.10 in 5.0 mi South 18.4 mph 27.6 mph N/A   Mostly Cloudy
11:35 AM 15.8 °F -1.5 °F 12.2 °F 86% 30.07 in 2.0 mi South 20.7 mph 31.1 mph N/A   Overcast
11:55 AM 17.6 °F 1.3 °F 14.0 °F 86% 30.07 in 1.5 mi South 19.6 mph 34.5 mph N/A Snow Light Snow
12:15 PM 17.6 °F -0.3 °F 14.0 °F 86% 30.07 in 1.8 mi South 24.2 mph 29.9 mph N/A   Overcast
12:35 PM 17.6 °F 1.3 °F 14.0 °F 86% 30.05 in 2.0 mi South 19.6 mph 28.8 mph N/A   Overcast
12:55 PM 17.6 °F 2.7 °F 15.8 °F 93% 30.04 in 2.0 mi South 16.1 mph 28.8 mph N/A   Overcast
1:15 PM 19.4 °F 3.6 °F 15.8 °F 86% 30.02 in 1.8 mi South 19.6 mph 26.5 mph N/A   Overcast
1:35 PM 19.4 °F 0.8 °F 15.8 °F 86% 29.99 in 0.5 mi South 28.8 mph 40.3 mph N/A Fog Light Freezing Fog
1:55 PM 19.4 °F 2.1 °F 15.8 °F 86% 30.00 in 1.0 mi South 24.2 mph 34.5 mph N/A   Overcast
2:15 PM 19.4 °F 2.8 °F 17.6 °F 93% 29.99 in 1.8 mi SSW 21.9 mph 32.2 mph N/A   Overcast
2:35 PM 19.4 °F 1.1 °F 17.6 °F 93% 29.98 in 1.2 mi South 27.6 mph 35.7 mph N/A   Overcast
2:55 PM 19.4 °F 2.8 °F 17.6 °F 93% 29.97 in 2.5 mi South 21.9 mph 29.9 mph N/A   Overcast
3:15 PM 19.4 °F 3.2 °F 17.6 °F 93% 29.97 in 3.0 mi SSW 20.7 mph 29.9 mph N/A   Mist
3:35 PM 21.2 °F 8.3 °F 17.6 °F 86% 29.98 in 3.0 mi SSW 13.8 mph 28.8 mph N/A   Mist
3:55 PM 23.0 °F 7.2 °F 19.4 °F 86% 29.96 in 2.0 mi SSW 23.0 mph 26.5 mph N/A   Overcast
4:15 PM 21.2 °F 7.3 °F 19.4 °F 93% 29.96 in 4.0 mi South 16.1 mph 23.0 mph N/A   Overcast
4:35 PM 21.2 °F 7.8 °F 17.6 °F 86% 29.97 in 8.0 mi SSW 15.0 mph 26.5 mph N/A   Mostly Cloudy
4:55 PM 23.0 °F 9.2 °F 17.6 °F 80% 29.95 in 10.0 mi SSW 17.3 mph 25.3 mph N/A   Partly Cloudy
5:15 PM 23.0 °F 10.1 °F 17.6 °F 80% 29.95 in 10.0 mi South 15.0 mph 18.4 mph N/A   Clear
5:35 PM 23.0 °F 9.6 °F 17.6 °F 80% 29.94 in 10.0 mi SSW 16.1 mph - N/A   Clear
5:55 PM 21.2 °F 8.3 °F 15.8 °F 80% 29.94 in 10.0 mi South 13.8 mph - N/A   Clear
6:15 PM 19.4 °F 5.5 °F 15.8 °F 86% 29.94 in 10.0 mi SSW 15.0 mph 20.7 mph N/A   Clear
6:35 PM 19.4 °F 6.0 °F 15.8 °F 86% 29.94 in 10.0 mi SSW 13.8 mph 21.9 mph N/A   Clear
6:55 PM 19.4 °F 4.1 °F 15.8 °F 86% 29.92 in 10.0 mi South 18.4 mph 21.9 mph N/A   Clear
7:15 PM 19.4 °F 5.0 °F 15.8 °F 86% 29.92 in 10.0 mi South 16.1 mph 26.5 mph N/A   Clear
7:35 PM 19.4 °F 6.0 °F 15.8 °F 86% 29.92 in 10.0 mi SSW 13.8 mph 24.2 mph N/A   Clear
7:55 PM 19.4 °F 5.0 °F 15.8 °F 86% 29.92 in 10.0 mi South 16.1 mph 23.0 mph N/A   Clear
8:15 PM 19.4 °F 6.0 °F 15.8 °F 86% 29.92 in 10.0 mi SSW 13.8 mph 20.7 mph N/A   Clear
8:35 PM 19.4 °F 6.6 °F 15.8 °F 86% 29.91 in 10.0 mi SSW 12.7 mph - N/A   Clear
8:55 PM 19.4 °F 7.2 °F 17.6 °F 93% 29.91 in 10.0 mi SSW 11.5 mph 17.3 mph N/A   Clear
9:15 PM 21.2 °F 7.8 °F 17.6 °F 86% 29.89 in 10.0 mi South 15.0 mph 18.4 mph N/A   Clear
9:35 PM 21.2 °F 8.9 °F 17.6 °F 86% 29.88 in 10.0 mi South 12.7 mph 21.9 mph N/A   Clear
9:55 PM 23.0 °F 8.7 °F 17.6 °F 80% 29.87 in 10.0 mi SSW 18.4 mph 21.9 mph N/A   Clear
10:15 PM 23.0 °F 9.2 °F 19.4 °F 86% 29.86 in 10.0 mi SSW 17.3 mph - N/A   Clear
10:35 PM 23.0 °F 8.7 °F 19.4 °F 86% 29.85 in 10.0 mi SSW 18.4 mph - N/A   Clear
10:55 PM 23.0 °F 13.1 °F 19.4 °F 86% 29.85 in 10.0 mi South 9.2 mph 18.4 mph N/A   Clear
11:15 PM 24.8 °F 14.0 °F 19.4 °F 80% 29.85 in 10.0 mi South 11.5 mph 16.1 mph N/A   Clear
11:35 PM 24.8 °F 14.6 °F 21.2 °F 86% 29.84 in 10.0 mi South 10.4 mph - N/A   Clear
11:55 PM 24.8 °F 13.4 °F 21.2 °F 86% 29.83 in 10.0 mi South 12.7 mph 18.4 mph N/A   Clear